Estestar — 3ECR8 — position and weather

sailwx.info

Track history (hours):
 
Tides and Currents Weather Stations Pressure Air Temp Water Temp Dewpoint Dewpoint Depression Visibility Wind Speed Wind Dir Waves Ship Positions

Estestar

Last reported at 2014-Oct-25 16:34 UTC. Time now 2014-Oct-25 16:54 UTC.
Position N 43°49' E 009°46'.

Length 133 m; draft 4.2 m.

Type: Cargo ship. MMSI: 371448000.

Date/timePositionNaut miles runAvg speedWind from/ knotsBaromVisibWave heightAir tempDewpointWater temp
2014-Oct-25 16:34N 43°49' E 009°46'1111.4
2014-Oct-25 15:34N 43°41' E 009°35'1111.2
2014-Oct-25 14:33N 43°33' E 009°25'1111.2
2014-Oct-25 13:34N 43°24' E 009°14'1111.0
2014-Oct-25 12:33N 43°16' E 009°04'18311.3
2014-Oct-24 20:23N 41°05' E 006°11'160 5.5
2014-Oct-23 15:26N 39°09' E 003°47'2110.1
2014-Oct-23 13:22N 38°55' E 003°28'1310.7
2014-Oct-23 12:12N 38°47' E 003°16'812.1
2014-Oct-23 11:31N 38°41' E 003°08'1510.1
2014-Oct-23 10:05N 38°32' E 002°54'1010.8
2014-Oct-23 09:07N 38°25' E 002°44'226 6.3
2014-Oct-21 21:08N 35°45' W 000°36'0 0.0
2014-Oct-21 19:32N 35°45' W 000°36'0 0.0
2014-Oct-21 14:31N 35°45' W 000°36'0 0.0
2014-Oct-21 13:32N 35°45' W 000°36'0 0.0
2014-Oct-21 12:32N 35°45' W 000°36'0 0.0
2014-Oct-20 23:07N 35°45' W 000°36'0 0.0
2014-Oct-20 22:25N 35°45' W 000°36'0 0.0
2014-Oct-20 21:32N 35°45' W 000°36'0 0.0
2014-Oct-20 18:20N 35°45' W 000°36'0 0.0
2014-Oct-20 16:25N 35°45' W 000°36'0 0.0
2014-Oct-19 20:26N 35°45' W 000°37'0 0.1
2014-Oct-19 19:26N 35°45' W 000°36'0 0.0
2014-Oct-18 06:32N 35°45' W 000°36'3 0.3
2014-Oct-17 22:32N 35°43' W 000°38'1 0.1
2014-Oct-17 15:07N 35°43' W 000°39'0 0.0
2014-Oct-17 14:33N 35°43' W 000°39'  
Track history (hours):
 
Tides and Currents Weather Stations Pressure Air Temp Water Temp Dewpoint Dewpoint Depression Visibility Wind Speed Wind Dir Waves Ship Positions

Estestar

Last reported at 2014-Oct-25 16:34 UTC. Time now 2014-Oct-25 16:54 UTC.
Position N 43°49' E 009°46'.

Length 133 m; draft 4.2 m.

Type: Cargo ship. MMSI: 371448000.

Date/timePositionNaut miles runAvg speedWind from/ knotsBaromVisibWave heightAir tempDewpointWater temp
2014-Oct-25 16:34N 43°49' E 009°46'1111.4
2014-Oct-25 15:34N 43°41' E 009°35'1111.2
2014-Oct-25 14:33N 43°33' E 009°25'1111.2
2014-Oct-25 13:34N 43°24' E 009°14'1111.0
2014-Oct-25 12:33N 43°16' E 009°04'18311.3
2014-Oct-24 20:23N 41°05' E 006°11'160 5.5
2014-Oct-23 15:26N 39°09' E 003°47'2110.1
2014-Oct-23 13:22N 38°55' E 003°28'1310.7
2014-Oct-23 12:12N 38°47' E 003°16'812.1
2014-Oct-23 11:31N 38°41' E 003°08'1510.1
2014-Oct-23 10:05N 38°32' E 002°54'1010.8
2014-Oct-23 09:07N 38°25' E 002°44'226 6.3
2014-Oct-21 21:08N 35°45' W 000°36'0 0.0
2014-Oct-21 19:32N 35°45' W 000°36'0 0.0
2014-Oct-21 14:31N 35°45' W 000°36'0 0.0
2014-Oct-21 13:32N 35°45' W 000°36'0 0.0
2014-Oct-21 12:32N 35°45' W 000°36'0 0.0
2014-Oct-20 23:07N 35°45' W 000°36'0 0.0
2014-Oct-20 22:25N 35°45' W 000°36'0 0.0
2014-Oct-20 21:32N 35°45' W 000°36'0 0.0
2014-Oct-20 18:20N 35°45' W 000°36'0 0.0
2014-Oct-20 16:25N 35°45' W 000°36'0 0.0
2014-Oct-19 20:26N 35°45' W 000°37'0 0.1
2014-Oct-19 19:26N 35°45' W 000°36'0 0.0
2014-Oct-18 06:32N 35°45' W 000°36'3 0.3
2014-Oct-17 22:32N 35°43' W 000°38'1 0.1
2014-Oct-17 15:07N 35°43' W 000°39'0 0.0
2014-Oct-17 14:33N 35°43' W 000°39'  

Dump ship's entire track history